Stations météo

Publicité
Bergerac, France (7530): Température de l'air & dewpoint: 10.01.2019 17:00:00 - 16.01.2019 17:00:00 (CET)Bergerac, France (7530): Température de l'air 5cm: 10.01.2019 17:00:00 - 16.01.2019 17:00:00 (CET)Bergerac, France (7530): Température de l'air -20cm & Température de l'air -100cm: 10.01.2019 17:00:00 - 16.01.2019 17:00:00 (CET)Bergerac, France (7530): Vitesse du vent & gusts: 10.01.2019 17:00:00 - 16.01.2019 17:00:00 (CET)Bergerac, France (7530): Direction du vent: 10.01.2019 17:00:00 - 16.01.2019 17:00:00 (CET)Bergerac, France (7530): reduced air pressure: 10.01.2019 17:00:00 - 16.01.2019 17:00:00 (CET)Bergerac, France (7530): visibility: 10.01.2019 17:00:00 - 16.01.2019 17:00:00 (CET)Bergerac, France (7530): Ensoleillement: 10.01.2019 17:00:00 - 16.01.2019 17:00:00 (CET)Bergerac, France (7530): Quantités de précipitations: 10.01.2019 17:00:00 - 16.01.2019 17:00:00 (CET)
Date & Time tt [°C] td [°C] tt 5cm [°C] tt -20cm [°C] tt -100cm [°C] ff [km/h] ff [knt] fx [km/h] fx [knt] dd ppp [hPa] vv [km] sd [min] rr [mm]
16.01.2019 17:00:00 9,0 5,7 8,4 6,2 9,5 5 3 14 8 S 1015,5 26 0 0,0
16.01.2019 16:00:00 9,1 5,5 9,0 6,2 9,5 7 4 18 10 SW 1015,9 28 0 0,0
16.01.2019 15:00:00 9,7 4,9 9,9 6,1 9,5 11 6 22 12 SW 1015,7 34 0 0,0
16.01.2019 14:00:00 10,1 4,7 11,1 6,0 9,5 13 7 27 14 S 1015,6 33 12 0,0
16.01.2019 13:00:00 10,9 5,0 11,3 6,0 9,5 13 7 26 14 S 1016,1 22 58 0,0
16.01.2019 12:00:00 7,7 3,9 6,6 6,0 9,5 11 6 26 14 S 1016,8 20 20 0,0
16.01.2019 11:00:00 3,7 2,5 1,7 6,1 9,5 8 5 19 11 ESE 1016,8 15 47 0,0
16.01.2019 10:00:00 0,0 -0,6 -3,9 6,2 9,4 8 4 13 7 ENE 1017,2 10 60 0,0
16.01.2019 09:00:00 -2,7 -3,1 -5,5 6,3 9,5 9 5 14 8 E 1016,9 10 3 0,0
16.01.2019 08:00:00 -3,3 -3,8 -5,6 6,4 9,5 8 4 11 6 E 1017,0 9 0 0,0
16.01.2019 07:00:00 -2,3 -2,7 -5,1 6,5 9,5 7 4 10 5 ENE 1016,9 9 0 0,0
16.01.2019 06:00:00 -3,0 -3,4 -5,5 6,6 9,5 8 5 14 7 E 1017,2 8 0 0,0
16.01.2019 05:00:00 -2,9 -3,4 -5,4 6,7 9,5 6 3 11 6 ENE 1017,6 10 0 0,0
16.01.2019 04:00:00 -2,5 -2,9 -3,9 6,8 9,5 11 6 11 6 E 1018,2 10 0 0,0
16.01.2019 03:00:00 -3,0 -3,4 -5,3 6,9 9,5 9 5 12 6 E 1018,8 10 0 0,0
16.01.2019 02:00:00 -2,7 -3,1 -6,2 7,0 9,5 5 3 10 5 E 1019,0 5 0 0,0
16.01.2019 01:00:00 -3,2 -3,6 -6,4 7,1 9,5 9 5 10 5 ENE 1019,5 9 0 0,0
16.01.2019 00:00:00 -3,0 -3,5 -6,0 7,3 9,5 6 3 11 6 ENE 1020,1 10 0 0,0
15.01.2019 23:00:00 -2,5 -3,1 -5,8 7,4 9,5 3 2 9 5 ENE 1020,4 4,1 0 0,0
15.01.2019 22:00:00 -2,1 -2,8 -5,3 7,5 9,4 8 4 9 5 ENE 1020,5 6 0 0,0
15.01.2019 21:00:00 -0,4 -1,1 -4,1 7,5 9,4 3 2 9 5 SE 1020,9 8 0 0,0
15.01.2019 20:00:00 0,7 -0,3 -3,7 7,5 9,4 5 3 7 4 ENE 1021,4 16 0 0,0
15.01.2019 19:00:00 2,4 0,3 -2,6 7,6 9,4 4 2 5 3 SE 1021,6 15 0 0,0
15.01.2019 18:00:00 6,5 1,2 -1,0 7,5 9,4 3 2 11 6 E 1021,6 11 17 0,0
15.01.2019 17:00:00 9,5 1,6 8,1 7,5 9,4 7 4 16 8 ESE 1021,7 59 60 0,0
15.01.2019 16:00:00 10,6 2,2 13,8 7,4 9,4 9 5 16 9 E 1022,0 53 60 0,0
15.01.2019 15:00:00 10,6 2,2 14,5 7,3 9,4 6 3 16 8 E 1022,5 53 60 0,0
15.01.2019 14:00:00 10,0 1,4 13,9 7,3 9,4 11 6 23 12 E 1023,6 58 60 0,0
15.01.2019 13:00:00 9,1 3,1 13,2 7,3 9,4 4 2 10 5 NE 1024,7 49 60 0,0
15.01.2019 12:00:00 6,9 3,9 9,9 7,4 9,4 0 0 6 4 N 1025,8 27 60 0,0
15.01.2019 11:00:00 3,1 3,0 2,2 7,4 9,4 0 0 8 4 N 1026,5 17 60 0,0
15.01.2019 10:00:00 -0,2 -0,3 -3,2 7,6 9,4 5 3 9 5 ENE 1026,5 4,7 51 0,0
15.01.2019 09:00:00 -2,2 -2,5 -4,9 7,7 9,4 4 2 5 3 ENE 1026,5 0,2 0 0,0
15.01.2019 08:00:00 -2,0 -2,3 -4,8 7,8 9,4 2 1 9 5 ENE 1026,3 0,3 0 0,0
15.01.2019 07:00:00 -1,6 -1,9 -4,1 7,9 9,4 8 4 9 5 ENE 1026,2 0,5 0 0,0
15.01.2019 06:00:00 -0,7 -1,0 -3,8 8,0 9,4 3 2 4 2 E 1026,3 0,5 0 0,0
15.01.2019 05:00:00 -0,2 -0,6 -3,5 8,1 9,3 3 2 5 3 ENE 1026,4 0,2 0 0,0
15.01.2019 04:00:00 1,0 0,4 -2,6 8,2 9,3 0 0 5 3 N 1026,5 2,1 0 0,0
15.01.2019 03:00:00 2,6 1,9 -1,1 8,2 9,4 2 1 6 3 SSW 1026,5 5 0 0,0
15.01.2019 02:00:00 4,6 3,6 -0,3 8,2 9,3 3 2 7 4 SE 1026,4 9 0 0,0
15.01.2019 01:00:00 6,9 5,2 4,9 8,3 9,3 0 0 5 3 N 1026,7 19 0 0,0
15.01.2019 00:00:00 7,8 5,6 6,1 8,3 9,3 4 2 11 6 NW 1026,5 33 0 0,0
14.01.2019 23:00:00 7,9 5,9 6,1 8,3 9,3 3 2 10 5 N 1026,2 20 0 0,0
14.01.2019 22:00:00 7,8 5,9 6,4 8,3 9,3 3 2 9 5 W 1026,0 17 0 0,0
14.01.2019 21:00:00 8,3 6,3 6,6 8,3 9,3 8 4 13 7 WNW 1025,8 37 0 0,0
14.01.2019 20:00:00 8,2 6,2 6,7 8,3 9,3 8 5 14 8 W 1025,5 33 0 0,0
14.01.2019 19:00:00 8,5 6,3 7,2 8,3 9,3 13 7 21 11 WNW 1025,2 48 0 0,0
14.01.2019 18:00:00 9,2 6,8 8,0 8,2 9,3 9 5 15 8 NW 1025,0 52 0 0,0
14.01.2019 17:00:00 10,6 7,1 10,2 8,2 9,3 13 7 23 12 NW 1024,5 60 0 0,0
14.01.2019 16:00:00 11,4 7,5 11,4 8,1 9,3 11 6 24 13 WNW 1024,0 56 0 0,0
14.01.2019 15:00:00 11,4 7,9 11,7 8,0 9,3 16 8 26 14 WNW 1024,1 59 0 0,0
14.01.2019 14:00:00 11,4 7,9 11,9 7,9 9,3 15 8 26 14 NW 1024,1 60 0 0,0
14.01.2019 13:00:00 11,5 8,2 11,7 7,8 9,3 14 7 22 12 WNW 1024,3 45 0 0,0
14.01.2019 12:00:00 10,9 9,0 10,9 7,8 9,2 14 8 24 13 WNW 1024,7 60 21 0,0
14.01.2019 11:00:00 9,8 8,7 10,5 7,8 9,2 14 7 19 11 W 1024,6 59 7 0,0
14.01.2019 10:00:00 9,2 8,9 8,6 7,8 9,2 10 6 16 9 W 1024,3 18 8 0,0
14.01.2019 09:00:00 8,8 8,5 8,6 7,8 9,2 10 5 21 12 W 1023,8 60 0 0,0
14.01.2019 08:00:00 8,9 8,8 8,6 7,7 9,2 14 8 24 13 W 1023,3 10 0 0,0
14.01.2019 07:00:00 8,8 8,5 8,5 7,7 9,2 16 9 25 13 W 1022,9 5 0 0,2
14.01.2019 06:00:00 8,9 8,4 8,5 7,7 9,2 16 9 31 17 W 1023,0 6 0 0,0
14.01.2019 05:00:00 8,9 8,3 8,1 7,7 9,2 19 10 35 19 W 1023,1 60 0 0,0
14.01.2019 04:00:00 9,0 8,4 8,4 7,6 9,2 19 10 27 15 W 1023,4 13 0 0,0
14.01.2019 03:00:00 9,1 8,6 8,8 7,6 9,2 18 10 32 17 W 1023,5 5 0 0,2
14.01.2019 02:00:00 9,2 8,6 8,5 7,6 9,2 22 12 35 19 W 1023,3 11 0 0,0
14.01.2019 01:00:00 9,0 8,4 8,0 7,6 9,2 15 8 34 18 W 1023,9 50 0 0,0
14.01.2019 00:00:00 9,4 8,5 8,7 7,5 9,2 20 11 33 18 W 1024,6 52 0 0,0
13.01.2019 23:00:00 9,4 8,8 8,9 7,5 9,2 22 12 36 19 W 1024,7 16 0 0,0
13.01.2019 22:00:00 9,7 8,9 8,8 7,4 9,2 20 11 33 18 W 1025,0 14 0 0,0
13.01.2019 21:00:00 9,8 9,2 8,4 7,4 9,2 20 11 29 16 W 1024,7 12 0 0,0
13.01.2019 20:00:00 9,7 9,2 8,8 7,3 9,2 17 9 25 14 W 1025,0 45 0 0,0
13.01.2019 19:00:00 9,9 9,4 9,5 7,2 9,2 16 9 32 17 W 1025,3 7 0 0,0
13.01.2019 18:00:00 10,3 9,4 9,7 7,2 9,2 19 11 29 16 W 1025,1 16 9 0,0
13.01.2019 17:00:00 10,6 9,5 10,2 7,1 9,2 21 11 31 17 W 1025,2 18 6 0,0
13.01.2019 16:00:00 10,6 9,8 10,2 7,0 9,2 13 7 25 14 W 1025,6 10 0 0,0
13.01.2019 15:00:00 10,7 9,9 10,3 6,9 9,2 18 10 26 14 W 1026,0 20 0 0,0
13.01.2019 14:00:00 10,3 9,5 10,2 6,8 9,2 15 8 23 13 W 1026,8 12 0 0,0
13.01.2019 13:00:00 10,0 9,4 9,8 6,7 9,2 14 8 34 18 W 1027,3 10 0 0,0
13.01.2019 12:00:00 9,8 9,3 9,4 6,6 9,2 20 11 27 14 WNW 1028,1 19 0 0,0
13.01.2019 11:00:00 9,7 9,2 9,1 6,6 9,2 16 9 28 15 W 1028,5 9 0 0,0
13.01.2019 10:00:00 9,4 8,8 8,7 6,6 9,2 18 10 28 15 W 1028,2 8 0 0,0
13.01.2019 09:00:00 9,0 8,4 8,2 6,5 9,3 11 6 19 11 W 1028,1 48 0 0,0
13.01.2019 08:00:00 8,7 8,1 8,2 6,5 9,2 11 6 26 14 W 1028,1 53 0 0,0
13.01.2019 07:00:00 8,5 8,1 7,7 6,4 9,2 14 7 25 13 WSW 1027,8 39 0 0,0
13.01.2019 06:00:00 8,0 7,7 7,0 6,4 9,3 11 6 19 11 W 1028,3 50 0 0,0
13.01.2019 05:00:00 7,4 7,1 6,7 6,4 9,2 13 7 25 14 W 1028,7 17 0 0,0
13.01.2019 04:00:00 7,0 6,6 6,1 6,4 9,2 11 6 20 11 WSW 1029,2 5 0 0,2
13.01.2019 03:00:00 6,4 6,0 5,9 6,4 9,2 10 5 19 11 WSW 1029,5 2,7 0 0,2
13.01.2019 02:00:00 6,3 5,7 5,7 6,4 9,2 12 6 25 14 WSW 1030,0 3,0 0 0,2
13.01.2019 01:00:00 6,2 5,2 5,5 6,4 9,3 9 5 17 9 WSW 1030,6 5 0 0,0
13.01.2019 00:00:00 5,8 5,4 4,6 6,4 9,3 6 3 11 6 WSW 1031,2 6 0 0,0
12.01.2019 23:00:00 4,9 4,6 2,0 6,4 9,2 6 3 11 6 WSW 1031,6 4,0 0 0,0
12.01.2019 22:00:00 3,9 3,6 0,4 6,4 9,3 6 4 9 5 SW 1031,5 5 0 0,0
12.01.2019 21:00:00 3,5 3,1 -0,9 6,4 9,3 6 4 9 5 SSW 1032,0 2,0 0 0,0
12.01.2019 20:00:00 5,4 4,0 0,5 6,4 9,3 0 0 7 4 N 1032,1 3,5 0 0,0
12.01.2019 19:00:00 6,4 5,0 5,1 6,3 9,2 6 3 8 4 SSW 1032,1 13 0 0,0
12.01.2019 18:00:00 6,8 5,1 5,7 6,2 9,3 3 2 13 7 SSW 1031,8 15 0 0,0
12.01.2019 17:00:00 7,5 5,6 7,5 6,1 9,3 9 5 13 7 W 1031,8 16 0 0,0
12.01.2019 16:00:00 7,4 5,4 8,1 6,0 9,3 9 5 13 7 WSW 1031,7 13 0 0,0
12.01.2019 15:00:00 7,2 5,3 8,2 5,9 9,3 6 4 11 6 WSW 1031,8 14 0 0,0
12.01.2019 14:00:00 6,6 4,9 7,6 5,9 9,3 7 4 12 7 WNW 1032,4 12 0 0,0
12.01.2019 13:00:00 6,2 4,7 6,6 5,8 9,3 6 3 12 7 WNW 1032,9 12 0 0,0
12.01.2019 12:00:00 6,1 4,6 6,9 5,7 9,3 8 5 14 7 W 1033,4 14 0 0,0
12.01.2019 11:00:00 5,7 4,5 6,0 5,7 9,3 8 5 14 8 W 1033,6 13 0 0,0
12.01.2019 10:00:00 5,2 4,8 4,6 5,7 9,3 3 2 9 5 NNW 1033,3 2,7 0 0,0
12.01.2019 09:00:00 4,6 4,2 4,3 5,7 9,4 3 2 7 4 S 1032,9 3,2 0 0,0
12.01.2019 08:00:00 4,5 4,1 4,2 5,6 9,4 4 2 8 4 ENE 1032,5 3,0 0 0,0
12.01.2019 07:00:00 4,5 3,9 4,2 5,6 9,4 3 2 9 5 N 1032,5 5 0 0,0
12.01.2019 06:00:00 4,4 4,0 4,2 5,6 9,4 6 4 11 6 SW 1032,7 6 0 0,0
12.01.2019 05:00:00 4,4 4,0 4,1 5,5 9,4 0 0 4 2 N 1033,2 2,8 0 0,0
12.01.2019 04:00:00 4,3 3,9 3,9 5,5 9,4 0 0 5 3 N 1033,4 2,9 0 0,0
12.01.2019 03:00:00 4,2 3,6 3,9 5,5 9,4 3 1 7 4 S 1033,3 4,2 0 0,0
12.01.2019 02:00:00 4,3 3,7 4,0 5,5 9,4 7 4 11 6 WNW 1033,1 4,3 0 0,0
12.01.2019 01:00:00 4,3 3,9 4,0 5,4 9,4 6 3 14 8 WNW 1033,1 3,3 0 0,0
12.01.2019 00:00:00 4,3 3,9 3,8 5,4 9,4 10 5 22 12 W 1033,2 2,8 0 0,2
11.01.2019 23:00:00 4,7 3,4 4,0 5,3 9,4 13 7 19 10 W 1033,1 6 0 0,0
11.01.2019 22:00:00 4,5 2,0 4,0 5,3 9,4 5 3 9 5 W 1033,1 20 0 0,0
11.01.2019 21:00:00 4,6 2,0 3,9 5,2 9,4 6 3 12 6 W 1032,9 19 0 0,0
11.01.2019 20:00:00 4,6 1,8 4,0 5,2 9,4 8 4 13 7 W 1032,6 19 0 0,0
11.01.2019 19:00:00 4,5 1,5 3,8 5,1 9,4 8 5 12 6 W 1032,5 18 0 0,0
11.01.2019 18:00:00 4,9 1,2 4,2 5,0 9,4 8 5 14 7 W 1032,0 30 0 0,0
11.01.2019 17:00:00 5,6 0,6 5,1 4,9 9,4 11 6 20 11 WNW 1031,8 56 0 0,0
11.01.2019 16:00:00 6,3 0,4 6,6 4,9 9,5 9 5 23 12 NW 1031,4 54 0 0,0
11.01.2019 15:00:00 6,4 -0,1 7,2 4,7 9,4 13 7 23 12 NNW 1031,2 58 1 0,0
11.01.2019 14:00:00 5,9 -0,2 7,8 4,7 9,5 10 5 23 12 NW 1031,3 20 43 0,0
11.01.2019 13:00:00 4,3 1,2 6,7 4,7 9,5 8 4 15 8 W 1031,8 16 60 0,0
11.01.2019 12:00:00 1,9 0,1 1,1 4,7 9,5 9 5 17 9 W 1032,5 12 54 0,0
11.01.2019 11:00:00 -0,1 -0,8 -0,2 4,8 9,5 11 6 19 10 W 1032,5 9 0 0,0
11.01.2019 10:00:00 -0,7 -1,1 -3,4 4,9 9,5 7 4 12 6 W 1031,9 10 0 0,0
11.01.2019 09:00:00 -2,8 -3,2 -6,3 5,0 9,5 11 6 14 8 W 1031,2 11 0 0,0
11.01.2019 08:00:00 -3,4 -3,9 -7,2 5,0 9,5 5 3 9 5 WNW 1030,4 13 0 0,0
11.01.2019 07:00:00 -4,0 -5,0 -7,8 5,1 9,5 5 3 9 5 WSW 1030,3 11 0 0,0
11.01.2019 06:00:00 -3,2 -4,0 -7,3 5,2 9,5 6 4 13 7 WSW 1029,9 13 0 0,0
11.01.2019 05:00:00 -2,8 -3,5 -7,3 5,2 9,5 6 3 11 6 WSW 1029,8 15 0 0,0
11.01.2019 04:00:00 -3,1 -4,2 -6,6 5,3 9,5 7 4 10 6 W 1029,8 10 0 0,0
11.01.2019 03:00:00 -2,6 -3,6 -6,4 5,4 9,5 9 5 11 6 W 1029,5 17 0 0,0
11.01.2019 02:00:00 -2,5 -3,5 -6,5 5,5 9,5 8 4 9 5 SW 1029,5 13 0 0,0
11.01.2019 01:00:00 -2,2 -3,2 -6,2 5,5 9,6 5 3 11 6 SW 1029,5 12 0 0,0
11.01.2019 00:00:00 -2,1 -3,5 -5,1 5,5 9,6 10 6 13 7 NW 1029,5 20 0 0,0
10.01.2019 23:00:00 -0,3 -2,8 -3,0 5,6 9,5 8 5 14 8 NW 1029,1 31 0 0,0
10.01.2019 22:00:00 1,4 -2,2 -0,4 5,6 9,5 10 5 15 8 NW 1028,8 36 0 0,0
10.01.2019 21:00:00 1,7 -1,7 0,8 5,6 9,5 10 5 13 7 WNW 1028,6 31 0 0,0
10.01.2019 20:00:00 1,8 -1,6 -0,5 5,6 9,6 9 5 14 8 NW 1028,1 35 0 0,0
10.01.2019 19:00:00 1,7 -2,6 -0,4 5,6 9,6 10 5 16 9 NW 1027,6 49 0 0,0
10.01.2019 18:00:00 2,7 -2,8 0,8 5,5 9,6 11 6 29 15 N 1027,3 50 10 0,0
10.01.2019 17:00:00 4,0 -2,2 3,3 5,5 9,5 18 10 34 18 N 1026,7 42 60 0,0

tt = Température de l'air
td = dewpoint
tt 5cm = Température de l'air 5cm
tt -20cm = Température de l'air -20cm
tt -100cm = Température de l'air -100cm
ff = Vitesse du vent
fx = gusts
dd = Direction du vent
ppp = reduced air pressure
vv = visibility
sd = Ensoleillement
rr = Quantités de précipitations

stations d'obs. à proximité